This demonstration page uses our WeatherBlox Daily Observations layout. Learn more.

Left ArrowRight Arrow

Hourly Observations for April 24, 2015

Temp ( °F °C ) Dew Point ( °F °C ) Humidity (%) Winds ( mph kmh ) Pressure ( in mb ) Visibility ( mi km ) Precip ( " mm )
12:16 am 00:16 Clear 37 3 23 -5 56 56 Calm 30.15 1021 10 16.0934 N/A
12:35 am 00:35 Clear 36 2 23 -5 60 60 S 3 6 30.15 1021 10 16.0934 N/A
12:56 am 00:56 Clear 36 2 23 -5 60 60 SSW 3 6 30.15 1021 10 16.0934 N/A
1:16 am 01:16 Clear 34 1 21 -6 60 60 E 6 9 30.15 1021 10 16.0934 N/A
1:36 am 01:36 Clear 34 1 23 -5 65 65 ESE 3 6 30.15 1021 10 16.0934 N/A
1:56 am 01:56 Clear 34 1 25 -4 70 70 E 3 6 30.15 1021 10 16.0934 N/A
2:16 am 02:16 Clear 34 1 25 -4 70 70 E 3 6 30.15 1021 10 16.0934 N/A
2:36 am 02:36 Clear 32 0 25 -4 75 75 Calm 30.15 1021 10 16.0934 N/A
2:56 am 02:56 Clear 32 0 27 -3 80 80 SE 3 6 30.15 1021 10 16.0934 N/A
3:16 am 03:16 Clear 32 0 25 -4 75 75 Calm 30.15 1021 10 16.0934 N/A
3:36 am 03:36 Clear 34 1 23 -5 65 65 SE 3 6 30.15 1021 10 16.0934 N/A
3:56 am 03:56 Clear 34 1 23 -5 65 65 SSE 3 6 30.15 1021 10 16.0934 N/A
4:16 am 04:16 Clear 32 0 25 -4 75 75 SSE 3 6 30.15 1021 10 16.0934 N/A
4:36 am 04:36 Clear 36 2 19 -7 52 52 SE 5 7 30.15 1021 10 16.0934 N/A
4:56 am 04:56 Clear 34 1 21 -6 60 60 SE 5 7 30.15 1021 10 16.0934 N/A
5:16 am 05:16 Clear 34 1 21 -6 60 60 S 6 9 30.15 1021 10 16.0934 N/A
5:36 am 05:36 Clear 36 2 19 -7 52 52 SSE 6 9 30.15 1021 10 16.0934 N/A
5:56 am 05:56 Clear 36 2 19 -7 52 52 S 6 9 30.15 1021 10 16.0934 N/A
6:16 am 06:16 Clear 36 2 19 -7 52 52 S 6 9 30.18 1022 10 16.0934 N/A
6:36 am 06:36 Clear 36 2 18 -8 48 48 S 6 9 30.18 1022 10 16.0934 N/A
6:56 am 06:56 Sunny 36 2 19 -7 52 52 S 6 9 30.18 1022 10 16.0934 N/A
7:16 am 07:16 Sunny 36 2 18 -8 48 48 S 5 7 30.18 1022 10 16.0934 N/A
7:36 am 07:36 Sunny 36 2 19 -7 52 52 S 6 9 30.18 1022 10 16.0934 N/A
7:56 am 07:56 Sunny 37 3 21 -6 52 52 SSE 6 9 30.18 1022 10 16.0934 N/A
8:16 am 08:16 Sunny 39 4 19 -7 45 45 SSE 7 11 30.15 1021 10 16.0934 N/A
8:36 am 08:36 Sunny 41 5 19 -7 42 42 S 5 7 30.15 1021 10 16.0934 N/A
8:56 am 08:56 Sunny 43 6 19 -7 39 39 S 5 7 30.15 1021 10 16.0934 N/A
9:15 am 09:15 Sunny 45 7 21 -6 39 39 S 8 13 30.15 1021 10 16.0934 N/A
9:36 am 09:36 Sunny 46 8 19 -7 34 34 S 7 11 30.15 1021 10 16.0934 N/A
9:56 am 09:56 Sunny 48 9 18 -8 29 29 S 8 13 30.15 1021 10 16.0934 N/A
10:15 am 10:15 Sunny 50 10 16 -9 25 25 SSW 6 9 30.15 1021 10 16.0934 N/A
10:36 am 10:36 Sunny 52 11 14 -10 22 22 S 3 6 30.15 1021 10 16.0934 N/A
10:56 am 10:56 Sunny 54 12 12 -11 19 19 SW 5 7 30.15 1021 10 16.0934 N/A
11:15 am 11:15 Sunny 55 13 9 -13 15 15 SW 7 11 30.12 1020 10 16.0934 N/A
11:36 am 11:36 Sunny 55 13 5 -15 13 13 SSW 5 7 30.12 1020 10 16.0934 N/A
11:56 am 11:56 Sunny 55 13 1 -17 11 11 WSW 7 11 30.12 1020 10 16.0934 N/A
12:15 pm 12:15 Sunny 55 13 -2 -19 9 9 SE 5 7 30.09 1019 10 16.0934 N/A
12:36 pm 12:36 Sunny 55 13 -4 -20 8 8 W 5 7 30.09 1019 10 16.0934 N/A
12:56 pm 12:56 Sunny 57 14 -4 -20 8 8 Calm 30.09 1019 10 16.0934 N/A
1:15 pm 13:15 Sunny 57 14 -9 -23 6 6 W 7 11 30.09 1019 10 16.0934 N/A
1:36 pm 13:36 Sunny 59 15 -2 -19 8 8 S 8 13 30.09 1019 10 16.0934 N/A
1:56 pm 13:56 Sunny 59 15 -9 -23 6 6 SSE 7 11 30.09 1019 10 16.0934 N/A
2:15 pm 14:15 Sunny 59 15 -8 -22 6 6 SSE 6 9 30.06 1018 10 16.0934 N/A
2:36 pm 14:36 Sunny 59 15 -4 -20 7 7 SSW 7 11 30.03 1017 10 16.0934 N/A
2:56 pm 14:56 Sunny 59 15 -9 -23 6 6 SSE 7 11 30.03 1017 10 16.0934 N/A
3:15 pm 15:15 Sunny 59 15 -9 -23 6 6 SSE 5 7 30.03 1017 10 16.0934 N/A
3:36 pm 15:36 Sunny 59 15 -4 -20 7 7 SSE 7 11 30 1016 10 16.0934 N/A
3:56 pm 15:56 Sunny 59 15 -2 -19 8 8 SSE 5 7 30 1016 10 16.0934 N/A
4:15 pm 16:15 Sunny 61 16 -9 -23 5 5 SSE 6 9 30 1016 10 16.0934 N/A
4:36 pm 16:36 Sunny 61 16 -13 -25 4 4 S 7 11 29.97 1015 10 16.0934 N/A
4:56 pm 16:56 Sunny 63 17 -6 -21 6 6 SE 6 9 29.97 1015 10 16.0934 N/A
5:16 pm 17:16 Sunny 61 16 -6 -21 6 6 S 6 9 29.97 1015 10 16.0934 N/A
5:36 pm 17:36 Sunny 61 16 0 -18 8 8 SSE 9 15 29.97 1015 10 16.0934 N/A
5:56 pm 17:56 Sunny 61 16 -6 -21 6 6 SSE 6 9 29.97 1015 10 16.0934 N/A
6:16 pm 18:16 Sunny 61 16 0 -18 8 8 S 5 7 29.97 1015 10 16.0934 N/A
6:36 pm 18:36 Sunny 59 15 0 -18 9 9 SSE 8 13 29.97 1015 10 16.0934 N/A
6:55 pm 18:55 Sunny 59 15 0 -18 9 9 S 7 11 29.97 1015 10 16.0934 N/A
7:16 pm 19:16 Partly Cloudy 59 15 3 -16 10 10 SSE 5 7 29.97 1015 10 16.0934 N/A
7:36 pm 19:36 Partly Cloudy 59 15 9 -13 13 13 SE 3 6 29.94 1014 10 16.0934 N/A
7:56 pm 19:56 Partly Cloudy 57 14 14 -10 18 18 SE 5 7 29.94 1014 10 16.0934 N/A
8:16 pm 20:16 Partly Cloudy 57 14 14 -10 18 18 SE 5 7 29.94 1014 10 16.0934 N/A
8:36 pm 20:36 Mostly Cloudy 55 13 16 -9 21 21 SSE 5 7 29.91 1013 10 16.0934 N/A
8:56 pm 20:56 Mostly Cloudy 55 13 14 -10 19 19 SSE 5 7 29.91 1013 10 16.0934 N/A
9:16 pm 21:16 Cloudy 55 13 14 -10 19 19 SE 3 6 29.91 1013 10 16.0934 N/A
9:36 pm 21:36 Cloudy 55 13 18 -8 23 23 SE 5 7 29.91 1013 10 16.0934 N/A
9:56 pm 21:56 Cloudy 55 13 18 -8 23 23 SE 6 9 29.91 1013 10 16.0934 N/A
10:16 pm 22:16 Cloudy 55 13 16 -9 21 21 SE 5 7 29.91 1013 10 16.0934 N/A
10:36 pm 22:36 Mostly Cloudy 54 12 21 -6 28 28 SE 6 9 29.91 1013 10 16.0934 N/A
10:56 pm 22:56 Mostly Cloudy 54 12 21 -6 28 28 SE 5 7 29.91 1013 10 16.0934 N/A
11:16 pm 23:16 Cloudy 55 13 19 -7 24 24 SE 5 7 29.91 1013 10 16.0934 N/A
11:36 pm 23:36 Cloudy 55 13 21 -6 26 26 ESE 5 7 29.88 1012 10 16.0934 N/A
11:56 pm 23:56 Cloudy 54 12 23 -5 30 30 ESE 3 6 29.88 1012 10 16.0934 N/A

Powered by AerisWeather